STARLINK-32615, 62034

Orbit data source: Space-Track

STARLINK-32615, 62034 is a payload satellite owned by SpaceX/Seattle (US) in LEO that was launched on Thu, 21 Nov 2024 UTC via an FALCON 9 launch vehicle from the Air Force Eastern Test Range (AFETR). Payload-class satellites include a variety of spacecraft equipped with specific instruments for various scientific and technological missions. These include communications satellites like Starlink; space stations such as the ISS; scientific satellites like the Hubble; Earth observation satellites from companies like Planet Labs, Umbra, and HawkEye 360; GPS; miniature CubeSats for education and research; and military/defense satellites.

Loading next visibility...
Identifier
62034, 2024-216C
Orbit
LEO
Last TLE update
15 hours ago
Origin
Manufacturer
SpaceX/Seattle
Mission
Operational Commercial Communications
Bus & Motor
STARLINK V2M, Unknown motor
Mass
730 kg wet, ~700 kg dry
Launch date (UTC)
2024-11-21 (6 months ago)
Launch vehicle
FALCON 9
Launch site
Air Force Eastern Test Range (AFETR)
Object type
Payload
Rocket body
Debris
Shape & HBR
Box + 2 Pan, 29 m
Radar Cross Section
36.964 m², Large (>1 m²)

Expand to show TLE details & history

TLE from 15 hours ago
0 STARLINK-32615
1 62034U 24216C   25128.63727613  .00007134  00000-0  17812-3 0  9990
2 62034  43.0039 185.0041 0001980 281.0113  79.0520 15.40659337 27082
Epoch: 2025-05-08T15:17Z
Definitive object data (Epoch: 2025-05-08T15:17:40.657Z)
Latitude
-0.00008°
Longitude
88.8797°
Altitude
443.681 km
Speed
7.648 km/s
True Right ascension
12h 20m 00s
True Declination
0° 00' 00"
Sunlit
Object was in full shadow at TLE epoch
Visualization TLE readout
Latitude
13.0257°
Longitude
-108.93032°
Altitude
443.912 km
Speed
7.648 km/s
Apparent Right ascension
00h 24m 13s
Apparent Declination
-13° 22' 33"
Sunlit
Object is in daylight
Visualization observer readout
Local Sidereal Time
14:08:18
Azimuth
48.055° ENE
Elevation
-54.983°
Doppler factor
1
Orbital elements
Apogee altitude
447.469 km
Perigee altitude
444.767 km
Semi-major axis
6,824.255 km
Eccentricity
0.000198
Inclination
43.0039°
RAAN
185.0041°
Arg. of periapsis
281.0113°
True anomaly
79.07428°
Mean anomaly
79.052°
Eccentric anomaly
79.06314°
Mean motion
3.85 °/min
BSTAR
0.00017812
Orbital period
93.51 mins
Loading maneuver chart data...
Loading SW <> Apogee altitude chart data...
Loading historical data...
Loading historical data...
Loading historical data...
Loading historical data...
Loading historical data...
Loading historical data...
Loading historical data...

STARLINK-32615 Visibility forecast

Observer location: undefined°, undefined°

Span
Click to sort rows by Start time (UTC) header in descending order
Start Az.
Max El. time (UTC)
Max El. Az.
Max El.
End time (UTC)
End Az.
6 mins2025-05-09 07:03:32.748Z217.601° SW2025-05-09 07:06:32.748Z148.178° SSE31.057°2025-05-09 07:09:32.748Z83.836° E
5 mins2025-05-09 08:42:32.748Z271.454° WNW2025-05-09 08:44:32.748Z357.573° N41.932°2025-05-09 08:47:32.748Z69.31° E
5 mins2025-05-09 10:20:32.748Z294.354° NW2025-05-09 10:22:32.748Z348.511° N37.615°2025-05-09 10:25:32.748Z80.193° E
5 mins2025-05-09 11:58:32.748Z282.236° WNW2025-05-09 12:00:32.748Z245.876° WSW40.735°2025-05-09 12:03:32.748Z122.459° SE
|